This is the latest recevied weather packets stored in our database for station/object IR3AS. If no packets are shown the sender has not sent any weather packets the latest 10 day(s).
| Time | Temp. | Humidity | Pressure | Rain* | Wind** | Luminosity | Snow |
|---|---|---|---|---|---|---|---|
| 1778070949 | 3.33° C | 93% | 848.2 hPa | 0 mm | - | - | - |
| 1778070648 | 3.33° C | 93% | 849.4 hPa | 0 mm | - | - | - |
| 1778070348 | 3.33° C | 93% | 849.6 hPa | 0 mm | - | - | - |
| 1778070048 | 3.33° C | 93% | 849 hPa | 0 mm | - | - | - |
| 1778069748 | 3.33° C | 93% | 847.6 hPa | 0 mm | - | - | - |
| 1778069448 | 3.89° C | 93% | 847.6 hPa | 0 mm | - | - | - |
| 1778069148 | 3.89° C | 93% | 848.1 hPa | 0 mm | - | - | - |
| 1778068848 | 3.89° C | 93% | 847.7 hPa | 0 mm | - | - | - |
| 1778068549 | 3.89° C | 93% | 847.1 hPa | 0 mm | - | - | - |
| 1778068248 | 3.89° C | 93% | 847.4 hPa | 0 mm | - | - | - |
| 1778067948 | 4.44° C | 93% | 847.2 hPa | 0 mm | - | - | - |
| 1778067648 | 4.44° C | 93% | 847.2 hPa | 0 mm | - | - | - |
| 1778067349 | 5° C | 93% | 847.1 hPa | 0 mm | - | - | - |
| 1778067048 | 5° C | 93% | 846.8 hPa | 0 mm | - | - | - |
| 1778066748 | 5° C | 93% | 846.9 hPa | 0 mm | - | - | - |
| 1778066448 | 4.44° C | 93% | 846.9 hPa | 0 mm | - | - | - |
| 1778066150 | 3.89° C | 94% | 846.7 hPa | 0 mm | - | - | - |
| 1778065849 | 3.33° C | 93% | 846.8 hPa | 0 mm | - | - | - |
| 1778065548 | 3.33° C | 93% | 846.9 hPa | 0 mm | - | - | - |
| 1778065248 | 2.78° C | 93% | 847.1 hPa | 0 mm | - | - | - |
| 1778064948 | 2.78° C | 93% | 847 hPa | 0 mm | - | - | - |
| 1778064648 | 2.78° C | 93% | 847.1 hPa | 0 mm | - | - | - |
| 1778064348 | 2.78° C | 93% | 847.2 hPa | 0 mm | - | - | - |
| 1778064048 | 2.78° C | 93% | 847.2 hPa | 0 mm | - | - | - |
| 1778063749 | 2.78° C | 93% | 847.8 hPa | 0 mm | - | - | - |
* Rain latest hour (hover to see other rain measurements)
** Current wind speed in m/s (hover to see current wind gust speed)